Tracking 19832 objects as of 26-Aug-2019
HD Live streaming from Space Station
objects crossing your sky now

H-2A DEB

Track H-2A DEB now!
10-day predictions


NORAD ID: 43673
Int'l Code: 2018-084C
Perigee: 600.5 km
Apogee: 622.9 km
Inclination: 97.9 °
Period: 96.8 minutes
Semi major axis: 6982 km
RCS: Unknown
Launch date: October 29, 2018
Source: Japan (JPN)
Launch site: TANEGASHIMA SPACE CENTER (TNSTA)

Note: This is SATELLITE DEBRIS
aabbcc
Your satellite tracking list
Your tracking list is empty




NASA's NSSDC Master Catalog

Two Line Element Set (TLE):
1 43673U 18084C   19237.87330980  .00000547  00000-0  65759-4 0  9996
2 43673  97.8626 350.2923 0015988  27.6500 332.5563 14.87879296 44699
Source of the keplerian elements: AFSPC